User: anonymous   Login
Location: Artiguedieu
(43.5000°N, 0.5454°E)
Time: 14:35:16
(UTC+00:00)
Language:

CAS-6 - Orbit

View from above orbital plane
View from above orbital plane
View from above satellite
View from above satellite

Ground track
Ground track

The orbit data is extracted from the following two-line orbital elements,

1 44881U 19093C   21268.09134807  .00000084  00000-0  17501-4 0  9998
2 44881  97.9189 345.8095 0014516 334.3626  25.6867 14.81482527 95480
Epoch (UTC): 25 September 2021 02:11:32
Eccentricity: 0.0014516
inclination: 97.9189°
perigee height: 614 km
apogee height: 635 km
right ascension of ascending node: 345.8095°
argument of perigee: 334.3626°
revolutions per day: 14.81482527
mean anomaly at epoch: 25.6867°
orbit number at epoch: 9548

The dashed part of the orbit path shows where the satellite is in the earth's shadow,  

DLR